Wetterdaten: aktuell Montag, 11.12.2023 06:24
Datum Zeit Temp. A. Feuchte A. Luftdruck Regen Wind Richtung Richtung Taupunkt Windchill
11.12.2023 06:24 8,8 C 90 % 997,4 hPa 0,0 l/m 7,4 km/h (2 Bft) SO22.5 140 7,3 C 8,0 C
11.12.2023 06:22 8,8 C 90 % 997,4 hPa 0,0 l/m 5,6 km/h (1 Bft) SO22.5 125 7,3 C 8,8 C
11.12.2023 06:20 8,8 C 90 % 997,4 hPa 0,0 l/m 5,6 km/h (1 Bft) SO22.5 125 7,3 C 8,8 C
11.12.2023 06:18 8,8 C 90 % 998,4 hPa 0,0 l/m 0,6 km/h (0 Bft) SO22.5 125 7,3 C 8,8 C
11.12.2023 06:16 8,8 C 91 % 998,4 hPa 0,0 l/m 3,9 km/h (1 Bft) SO67.5 135 7,4 C 8,8 C
11.12.2023 06:14 8,8 C 91 % 998,4 hPa 0,0 l/m 3,9 km/h (1 Bft) SO67.5 135 7,4 C 8,8 C
11.12.2023 06:12 8,7 C 91 % 998,4 hPa 0,0 l/m 5,6 km/h (1 Bft) SO45 145 7,3 C 8,7 C
11.12.2023 06:10 8,7 C 91 % 998,4 hPa 0,0 l/m 3,6 km/h (1 Bft) SO67.5 130 7,3 C 8,7 C
11.12.2023 06:09 8,7 C 91 % 998,4 hPa 0,0 l/m 5,5 km/h (1 Bft) SO45 140 7,3 C 8,7 C
11.12.2023 06:07 8,7 C 91 % 998,4 hPa 0,0 l/m 5,5 km/h (1 Bft) SO45 140 7,3 C 8,7 C
11.12.2023 06:05 8,7 C 91 % 998,4 hPa 0,0 l/m 1,2 km/h (1 Bft) SO22.5 135 7,3 C 8,7 C
11.12.2023 06:03 8,7 C 91 % 998,4 hPa 0,0 l/m 4,4 km/h (1 Bft) SO22.5 130 7,3 C 8,7 C
11.12.2023 06:01 8,7 C 91 % 997,4 hPa 0,0 l/m 2,9 km/h (1 Bft) O-SO45 110 7,3 C 8,7 C
11.12.2023 05:59 8,6 C 91 % 997,4 hPa 0,0 l/m 2,9 km/h (1 Bft) O-SO45 110 7,2 C 8,6 C
11.12.2023 05:57 8,6 C 91 % 997,4 hPa 0,0 l/m 1,5 km/h (1 Bft) SO22.5 130 7,2 C 8,6 C
11.12.2023 05:55 8,6 C 91 % 997,4 hPa 0,0 l/m 8,1 km/h (2 Bft) SO45 135 7,2 C 7,3 C
11.12.2023 05:53 8,6 C 91 % 997,4 hPa 0,0 l/m 8,1 km/h (2 Bft) SO45 135 7,2 C 7,3 C
11.12.2023 05:51 8,6 C 91 % 997,4 hPa 0,0 l/m 0,6 km/h (0 Bft) SO22.5 125 7,2 C 8,6 C
11.12.2023 05:48 8,6 C 91 % 998,4 hPa 0,0 l/m 4,3 km/h (1 Bft) SO 140 7,2 C 8,6 C
11.12.2023 05:46 8,6 C 91 % 998,4 hPa 0,0 l/m 3,5 km/h (1 Bft) SO45 145 7,2 C 8,6 C
11.12.2023 05:44 8,6 C 91 % 998,4 hPa 0,0 l/m 3,5 km/h (1 Bft) SO45 145 7,2 C 8,6 C
11.12.2023 05:42 8,6 C 91 % 998,4 hPa 0,0 l/m 4,0 km/h (1 Bft) SO 140 7,2 C 8,6 C
11.12.2023 05:40 8,5 C 91 % 998,4 hPa 0,0 l/m 0,5 km/h (0 Bft) S-SO22.5 150 7,1 C 8,5 C
11.12.2023 05:38 8,5 C 91 % 998,4 hPa 0,0 l/m 0,8 km/h (0 Bft) SO 135 7,1 C 8,5 C
11.12.2023 05:36 8,5 C 91 % 998,4 hPa 0,0 l/m 0,8 km/h (0 Bft) SO 135 7,1 C 8,5 C
11.12.2023 05:34 8,5 C 91 % 998,4 hPa 0,0 l/m 5,3 km/h (1 Bft) SO22.5 135 7,1 C 8,5 C
11.12.2023 05:32 8,5 C 91 % 998,4 hPa 0,0 l/m 6,4 km/h (2 Bft) S-SO22.5 150 7,1 C 8,5 C
11.12.2023 05:30 8,5 C 91 % 998,4 hPa 0,0 l/m 6,4 km/h (2 Bft) S-SO22.5 150 7,1 C 8,5 C
11.12.2023 05:28 8,4 C 91 % 998,4 hPa 0,0 l/m 0,8 km/h (0 Bft) S-SO22.5 150 7,0 C 8,4 C
11.12.2023 05:27 8,4 C 91 % 998,4 hPa 0,0 l/m 5,9 km/h (2 Bft) SO22.5 140 7,0 C 8,4 C
11.12.2023 05:25 8,4 C 91 % 998,4 hPa 0,0 l/m 0,7 km/h (0 Bft) SO22.5 135 7,0 C 8,4 C
11.12.2023 05:23 8,4 C 91 % 998,4 hPa 0,0 l/m 0,7 km/h (0 Bft) SO22.5 135 7,0 C 8,4 C
11.12.2023 05:21 8,4 C 91 % 998,4 hPa 0,0 l/m 0,7 km/h (0 Bft) S-SO22.5 150 7,0 C 8,4 C
11.12.2023 05:19 8,4 C 91 % 998,4 hPa 0,0 l/m 0,6 km/h (0 Bft) SO22.5 130 7,0 C 8,4 C
11.12.2023 05:17 8,4 C 91 % 998,4 hPa 0,0 l/m 0,6 km/h (0 Bft) SO22.5 130 7,0 C 8,4 C
11.12.2023 05:15 8,4 C 90 % 998,4 hPa 0,0 l/m 0,0 km/h (0 Bft) O-SO 120 6,9 C 8,4 C
11.12.2023 05:13 8,4 C 90 % 998,4 hPa 0,0 l/m 0,0 km/h (0 Bft) SO 125 6,9 C 8,4 C
11.12.2023 05:11 8,3 C 90 % 998,4 hPa 0,0 l/m 5,0 km/h (1 Bft) SO 130 6,8 C 8,3 C
11.12.2023 05:09 8,3 C 90 % 998,4 hPa 0,0 l/m 5,0 km/h (1 Bft) SO 130 6,8 C 8,3 C
11.12.2023 05:07 8,3 C 90 % 998,4 hPa 0,0 l/m 0,4 km/h (0 Bft) SO45 140 6,8 C 8,3 C
11.12.2023 05:05 8,3 C 90 % 998,4 hPa 0,0 l/m 5,7 km/h (1 Bft) SO22.5 135 6,8 C 8,3 C
_ Min-Zeit 04:33 00:00 06:20 - 00:03 - - 00:00 01:22
Minimum _ 8,3 C 79 % 997,4 hPa - 0,0 km/h (0 Bft) - - 5,7 C 2,8 C
_ Max-Zeit 00:00 02:08 04:33 00:00 01:22 - - 06:14 00:00
Maximum _ 9,1 C 92 % 998,4 hPa 0,4 l/m 16,0 km/h
S-SO (3 Bft)
- - 7,4 C 9,1 C
Durchschnitt _ 8,5 C 90 % 998,3 hPa #0,4 l/m 4,1 km/h (1 Bft) SO - 6,9 C 8,2 C